Home   Weather   Uelzen   Past weeks

Flag for Germany Past Weather in Uelzen, Lower Saxony, Germany — Yesterday and Last 2 Weeks

Now
45 °F

Drizzle. Fog.


Feels Like: 39 °F
Forecast: 41 / 45 °F
Wind: 10 mph from West

Location: Fassberg

Current Time: Dec 9, 2016 at 7:01:52 am

Latest Report: Dec 9, 2016 at 5:20 am


Visibility: 1 mi

Pressure: 30.21 "Hg

Humidity: 93%

Dew Point: 43 °F

Location of UelzenLocation

Past Weather in Uelzen — Graph

°F

Uelzen Temperature Yesterday

Maximum temperature yesterday: 48 °F (at 12:20 pm)
Minimum temperature yesterday: 41 °F (at 12:20 am)
Average temperature yesterday: 45 °F

High & Low Weather Summary for the Past Weeks

 TemperatureHumidityPressure
High48 °F (Dec 8, 12:20 pm)100% (Nov 24, 7:20 pm)30.57 "Hg (Nov 24, 7:20 pm)
Low12 °F (Dec 5, 7:20 am)49% (Dec 2, 2:20 pm)29.92 "Hg (Dec 1, 11:20 pm)
Average32 °F88%30.28 "Hg
* Reported Nov 24 5:20 am — Dec 9 5:20 am, Uelzen, Weather by CustomWeather, © 2016

Note: Actual official high and low records may vary slightly from our data, if they occured in-between our weather recording intervals... More about our weather records

Advertising

Uelzen Weather History for the Previous 24 Hours

Scroll right to see more
 ConditionsComfort  
Time TempWeatherWind HumidityBarometerVisibility
5:20 am
Fri, Dec 9
45 °FDrizzle. Fog.10 mph93%30.21 "Hg1 mi
4:20 am43 °FDrizzle. Fog.9 mph100%30.21 "Hg1 mi
3:20 am43 °FFog.12 mph100%30.21 "Hg1 mi
2:50 am43 °FPassing clouds.12 mph93%30.24 "Hg1 mi
2:20 am43 °FPassing clouds.12 mph93%30.21 "Hg2 mi
1:20 am43 °FPassing clouds.10 mph93%30.21 "Hg2 mi
12:20 am45 °FPassing clouds.13 mph81%30.24 "Hg3 mi
11:50 pm
Thu, Dec 8
46 °FPassing clouds.12 mph66%30.24 "Hg4 mi
11:20 pm46 °FPassing clouds.12 mph62%30.24 "HgN/A
10:20 pm45 °FPassing clouds.8 mph57%30.21 "HgN/A
9:20 pm45 °FPartly cloudy.10 mph57%30.21 "HgN/A
8:20 pm43 °FPassing clouds.7 mph61%30.24 "HgN/A
7:20 pm45 °FPartly cloudy.10 mph57%30.21 "HgN/A
6:49 pm45 °FPartly cloudy.9 mph61%30.21 "HgN/A
6:20 pm45 °FPassing clouds.9 mph61%30.21 "HgN/A
5:20 pm46 °FPartly cloudy.10 mph57%30.24 "HgN/A
4:20 pm46 °FPassing clouds.12 mph62%30.24 "HgN/A
3:20 pm48 °FPartly sunny.9 mph62%30.24 "HgN/A
2:20 pm48 °FPartly sunny.10 mph62%30.24 "HgN/A
1:20 pm48 °FBroken clouds.12 mph62%30.24 "HgN/A
12:20 pm48 °FPartly sunny.10 mph62%30.27 "HgN/A
11:20 am46 °FPartly sunny.12 mph66%30.27 "HgN/A
10:20 am46 °FPartly sunny.10 mph62%30.27 "HgN/A
9:20 am45 °FPartly sunny.12 mph66%30.27 "HgN/A
7:20 am43 °FPartly cloudy.10 mph71%30.27 "HgN/A
Weather by CustomWeather, © 2016

See weather overviewHow to use our weather pages